Погода в Галичном

Россия / Хабаровский край     50°43′21″N   137°12′06″E
темп.,
°C
ветер,
м/с
пор.,
м/с
влажн.,
%
обл.,
%
осадки,
мм/ч
давл.,
гПа
погр.,
м
27 января, чт
чт2701:00−25юв0010095 0.0 10249
04:00−25юв0010096 0.1 10249
07:00−23ю1110095 0.0 102332
10:00−21ю129696 0.1 1024146
13:00−18ю2389100 0.1 1022397
16:00−17ю2489100 0.1 1021482
19:00−18юв2498100 0.1 1021184
22:00−19юв2598100 0.2 1020299
28 января, пт
пт2801:00−19юв2698100 0.2 1019405
04:00−19ююв2698100 0.4 1018446
07:00−20ююв1498100 0.2 1017372
10:00−20ю1393100 0.4 1017398
13:00−18ююз1286100 0.2 1015663
16:00−18ююз1186100 0.4 1014602
19:00−20ююз11100100 0.1 101311
22:00−20ююз01100100 0.2 101219
29 января, сб
сб2901:00−22ю00100100 0.1 101211
04:00−23ю00100100 0.1 101210
07:00−27вюв0010088 0.0 10129
10:00−24юз0010089 0.0 101255
13:00−19ююз118699 0.0 1012478
16:00−18ююз2284100 0.1 1011539
19:00−24ююв1110089 0.0 10129
22:00−26ююв1110092 0.1 10139
30 января, вс
вс3001:00−29юв11100100 0.0 10139
04:00−30ююв11100100 0.0 10149
07:00−30ююв11100100 0.0 101618
10:00−26ю139799 0.1 1017156
13:00−22ю2291100 0.0 1017361
16:00−21ююз1290100 0.1 1018342
19:00−27ююз1110060 0.0 10219
22:00−29зюз0010079 0.0 10239
31 января, пн
пн3101:00−29ююв1110097 0.0 102312
04:00−27ю1299100 0.1 102461
07:00−26ю2399100 0.1 1024104
10:00−26ю2496100 0.2 1024202
13:00−23ю3492100 0.1 1023346
16:00−21ю3492100 0.2 1023371
19:00−27ююв1110093 0.0 102311
22:00−27ююв1110097 0.0 102327